Home   Weather   Royan   Past weeks

Flag for France Past Weather in Royan, Poitou-Charentes, France — Yesterday and Last 2 Weeks

Now
57 °F

Low clouds.


Feels Like: 57 °F
Forecast: 62 / 77 °F
Wind: 1 mph from North

Location: Cognac Airport

Current Time: Sep 28, 2016 at 5:37:48 AM

Latest Report: Sep 28, 2016 at 5:00 AM


Visibility: N/A

Pressure: 30.39 "Hg

Humidity: 100%

Dew Point: 57 °F

Location of RoyanLocation

Past Weather in Royan — Graph

°F

Royan Temperature Yesterday

Maximum temperature yesterday: 75 °F (at 3:00 PM)
Minimum temperature yesterday: 48 °F (at 6:30 AM)
Average temperature yesterday: 61 °F

High & Low Weather Summary for the Past Weeks

 TemperatureHumidityPressure
High86 °F (Sep 13, 1:00 PM)100% (Sep 13, 8:30 PM)30.39 "Hg (Sep 13, 8:30 PM)
Low46 °F (Sep 26, 5:00 AM)33% (Sep 25, 5:00 PM)29.62 "Hg (Sep 13, 7:30 PM)
Average63 °F72%30.09 "Hg
* Reported Sep 13 4:00 AM — Sep 28 4:30 AM, Royan, Weather by CustomWeather, © 2016

Note: Actual official high and low records may vary slightly from our data, if they occured in-between our weather recording intervals... More about our weather records

Advertising

Royan Weather History for the Previous 24 Hours

Scroll right to see more
 ConditionsComfort  
Time TempWeatherWind HumidityBarometerVisibility
4:30 AM
Wed, Sep 28
57 °FLow clouds.2 mph94%30.39 "HgN/A
4:00 AM55 °FPassing clouds.3 mph94%30.39 "HgN/A
3:30 AM55 °FPassing clouds.No wind94%30.39 "HgN/A
3:00 AM55 °FClear.No wind94%30.39 "Hg10 mi
2:30 AM57 °FClear.No wind94%30.39 "Hg10 mi
2:00 AM57 °FClear.3 mph94%30.39 "Hg10 mi
1:30 AM57 °FClear.2 mph88%30.39 "Hg10 mi
1:00 AM57 °FClear.No wind88%30.39 "Hg10 mi
12:30 AM59 °FClear.No wind94%30.39 "Hg10 mi
12:00 AM61 °FClear.No wind88%30.39 "Hg10 mi
11:30 PM
Tue, Sep 27
61 °FClear.No wind83%30.39 "Hg10 mi
11:00 PM61 °FClear.1 mph83%30.36 "Hg10 mi
10:30 PM61 °FClear.No wind83%30.36 "Hg10 mi
10:00 PM63 °FClear.No wind83%30.36 "Hg10 mi
9:30 PM64 °FClear.3 mph78%30.36 "Hg10 mi
9:00 PM64 °FClear.3 mph78%30.36 "Hg10 mi
8:30 PM66 °FClear.5 mph73%30.33 "Hg10 mi
8:00 PM68 °FClear.6 mph69%30.33 "Hg10 mi
7:30 PM70 °FSunny.8 mph60%30.33 "Hg10 mi
7:00 PM72 °FSunny.5 mph57%30.33 "Hg10 mi
6:30 PM72 °FSunny.8 mph53%30.33 "Hg10 mi
6:00 PM73 °FSunny.9 mph50%30.30 "Hg10 mi
5:30 PM75 °FPassing clouds.6 mph47%30.30 "HgN/A
5:00 PM75 °FPassing clouds.6 mph44%30.30 "HgN/A
4:30 PM75 °FOvercast.5 mph44%30.30 "HgN/A
4:00 PM73 °FMore clouds than sun.3 mph47%30.30 "HgN/A
3:30 PM73 °FOvercast.5 mph44%30.30 "HgN/A
3:00 PM75 °FSunny.3 mph41%30.30 "Hg10 mi
2:30 PM73 °FPassing clouds.6 mph41%30.33 "HgN/A
2:00 PM72 °FSunny.3 mph44%30.33 "Hg10 mi
1:30 PM72 °FPassing clouds.2 mph44%30.33 "HgN/A
1:00 PM70 °FSunny.2 mph46%30.33 "Hg10 mi
12:30 PM68 °FSunny.3 mph49%30.33 "Hg10 mi
12:00 PM66 °FPassing clouds.5 mph56%30.33 "HgN/A
11:30 AM64 °FSunny.3 mph60%30.33 "Hg10 mi
11:00 AM63 °FPassing clouds.5 mph64%30.33 "HgN/A
10:30 AM59 °FSunny.1 mph77%30.33 "Hg10 mi
10:00 AM57 °FSunny.No wind77%30.33 "Hg10 mi
9:30 AM54 °FSunny.No wind88%30.30 "Hg10 mi
9:00 AM52 °FSunny.3 mph88%30.30 "Hg10 mi
8:30 AM50 °FSunny.2 mph88%30.30 "Hg10 mi
8:00 AM48 °FSunny.1 mph94%30.30 "Hg10 mi
7:30 AM48 °FClear.2 mph94%30.27 "Hg10 mi
7:00 AM48 °FClear.2 mph87%30.27 "Hg10 mi
6:30 AM48 °FClear.No wind87%30.27 "Hg10 mi
6:00 AM50 °FClear.2 mph88%30.24 "Hg10 mi
5:30 AM50 °FClear.2 mph88%30.24 "Hg10 mi
5:00 AM50 °FClear.No wind88%30.24 "Hg10 mi
Weather by CustomWeather, © 2016

See weather overviewHow to use our weather pages